Simultaneous Nadir Overpasses (SNOs) Predictions

Prediction of SNOs between GOES-14 and AQUA Satellite Orbit:

Table of predicted SNOs for the next 14.0 days since TLE Epoch: 9/18/2020
Index Date Time (GOES-14) GOES-14 Lat,Lon AQUA Lat,Lon Distance(km) Time Diff (sec)
1 09/20/2020 20:20:36 -0.34,-104.47 0.42,-100.97 398.45 80
2 09/21/2020 08:41:51 0.32,-104.42 0.67,-106.12 193.50 80
3 09/23/2020 08:26:59 0.32,-104.41 0.07,-103.16 141.39 80
4 09/23/2020 20:48:24 -0.30,-104.43 -1.14,-108.36 446.91 80
5 09/25/2020 08:14:47 0.32,-104.40 -0.54,-100.20 476.36 80
6 09/25/2020 20:36:12 -0.30,-104.43 -0.53,-105.40 111.29 80
7 09/27/2020 20:26:41 -0.30,-104.43 0.15,-102.46 224.53 80
8 09/28/2020 08:47:56 0.28,-104.42 0.96,-107.61 362.80 80
9 09/30/2020 08:35:44 0.28,-104.42 0.34,-104.65 26.90 80
10 10/02/2020 08:20:52 0.28,-104.42 -0.28,-101.70 309.32 80
